Flag for Canada Weather past 2 weeks in Saint-Georges, Quebec, Canada

Now
69 °F

Mild.


Feels Like: 69 °F
Forecast: N/A
Wind: 3 mph from South

Location: Beauceville

Current Time: Aug 22, 2014 at 7:43:27 PM

Latest Report: Aug 22, 2014 at 7:00 PM


Visibility: N/A

Pressure: 30.14 "Hg

Humidity: 69%

Dew point: 59 °F

Location of Saint-GeorgesLocation

Historic Weather in Saint-Georges — Graph

°F

Saint-Georges temperature yesterday

Maximum temperature yesterday: 77 °F (at 4:00 PM)
Minimum temperature yesterday: 56 °F (at 5:00 AM)
Average temperature yesterday: 66 °F

Past Weeks' High & Low Weather Summary

 TemperatureHumidityPressure
High81 °F (Aug 10, 4:00 PM)100% (Aug 8, 3:00 AM)30.16 "Hg (Aug 8, 3:00 AM)
Low42 °F (Aug 15, 6:00 AM)38% (Aug 10, 2:00 PM)29.67 "Hg (Aug 14, 4:00 AM)
Average62 °F81%29.96 "Hg
* Reported Aug 7 6:00 PM — Aug 22 6:00 PM, Saint-Georges, Weather by CustomWeather, © 2014

Note: Actual official high and low records may vary slightly from our data, if they occured in-between our weather recording intervals... More about our weather records

Advertising

Saint-Georges weather history for previous 24 hours

 ConditionsComfort  
Time TempWeatherWind HumidityBarometerVisibility
6:00 PM
Aug 22
70 °FMild.3 mph67%30.14 "HgN/A
5:00 PM70 °FMild.5 mph66%30.13 "HgN/A
4:00 PM70 °FMild.5 mph63%30.14 "HgN/A
3:00 PM69 °FMild.8 mph64%30.15 "HgN/A
2:00 PM70 °FMild.10 mph61%30.16 "HgN/A
1:00 PM68 °FMild.8 mph74%30.16 "HgN/A
12:00 PM68 °FMild.8 mph73%30.16 "HgN/A
11:00 AM65 °FMild.7 mph82%30.16 "HgN/A
10:00 AM67 °FMild.3 mph78%30.16 "HgN/A
9:00 AM65 °FMild.6 mph81%30.15 "HgN/A
7:00 AM62 °FCool.1 mph92%30.14 "HgN/A
5:00 AM61 °FCool.2 mph93%30.12 "HgN/A
4:00 AM62 °FCool.1 mph92%30.11 "HgN/A
3:00 AM63 °FMild.2 mph89%30.11 "HgN/A
2:00 AM63 °FMild.2 mph89%30.11 "HgN/A
1:00 AM62 °FCool.1 mph90%30.11 "HgN/A
12:00 AM64 °FMild.3 mph86%30.12 "HgN/A
11:00 PM
Aug 21
66 °FMild.3 mph80%30.13 "HgN/A
10:00 PM67 °FMild.5 mph80%30.12 "HgN/A
9:00 PM68 °FMild.3 mph77%30.11 "HgN/A
8:00 PM67 °FMild.5 mph78%30.11 "HgN/A
7:00 PM71 °FMild.3 mph69%30.09 "HgN/A
Weather by CustomWeather, © 2014

See weather overviewHow to use our weather pages